Wind_Gust
16 16 16 17 18 18 18 19 19 20 19 19 20 21 21 21 22 22 20 21 19 20 20 20 21 21 22 23 24 24 24 23 23 21 22 23 24 22 22 23 23 23 23 23 22 22 22 22 22 22 22 21 21 21 21 22 21 21 20 20 21 22 23 25 29 31 33 26 29 30 26 23 28 25 26 24 25 26 20 27 25 24 24 26 26
17 17 17 17 17 18 18 18 20 20 19 19 20 21 21 21 20 19 19 19 19 20 20 19 20 21 22 23 24 24 24 23 22 22 23 23 23 23 23 23 23 23 23 24 25 25 23 23 23 23 21 22 21 21 21 23 23 22 22 21 21 21 18 24 28 29 32 30 29 29 30 25 30 24 25 26 25 22 24 26 26 26 27 24 25
17 18 18 18 18 18 19 19 20 20 20 20 20 20 20 20 19 20 19 18 19 20 20 20 20 21 22 23 23 23 24 23 22 21 22 23 23 24 23 23 23 23 24 25 26 25 25 24 24 24 23 23 22 20 20 23 24 24 23 22 22 22 22 19 22 27 28 33 30 30 28 26 26 27 25 26 24 23 24 25 26 26 29 28 26
19 19 20 19 19 19 19 20 20 19 20 20 20 19 19 18 19 19 19 19 20 18 19 20 19 20 21 23 23 23 24 24 23 22 22 22 24 23 22 22 22 22 23 25 26 26 25 25 24 24 23 23 23 23 24 26 27 24 24 24 22 23 22 21 21 21 25 30 29 31 30 29 28 27 25 25 28 28 27 25 24 25 24 26 27
19 20 20 20 19 20 19 19 19 20 19 19 19 19 18 18 18 19 19 20 19 18 18 18 19 20 21 22 23 23 23 23 24 23 22 21 23 22 22 21 21 22 22 24 21 24 25 25 25 24 23 24 24 25 26 26 27 26 26 26 26 27 27 26 26 23 23 26 30 28 27 31 31 30 28 30 26 28 25 25 27 27 26 25 28
18 19 19 19 19 18 18 18 18 18 18 18 18 18 18 18 18 18 19 19 18 18 19 19 20 20 21 21 22 23 24 24 25 24 23 22 22 21 21 21 21 22 22 24 24 24 24 25 24 25 25 24 25 26 27 26 27 27 27 28 29 27 29 30 29 27 25 26 24 33 25 32 31 32 29 28 29 28 25 25 24 24 28 27 27
18 18 17 17 18 17 17 17 17 17 17 17 17 17 18 17 18 18 18 18 18 18 18 19 18 19 19 20 22 24 25 25 26 25 24 23 23 23 23 22 22 23 23 24 24 24 24 24 24 25 25 25 25 26 28 28 28 28 28 29 30 30 31 29 29 30 29 28 28 25 28 26 29 33 29 28 28 29 27 21 24 24 26 27 30
17 17 16 17 17 17 16 16 16 17 17 17 17 16 17 17 17 17 17 18 19 19 19 18 17 18 19 20 22 25 26 25 25 27 26 25 23 23 23 24 24 24 24 25 24 24 24 24 24 25 25 24 26 26 28 31 31 29 31 30 32 32 32 32 31 29 29 28 28 29 26 27 28 29 32 28 26 24 25 29 26 23 24 25 27
16 17 16 16 16 16 16 15 16 16 17 17 16 17 17 17 17 18 17 17 17 18 18 18 18 19 20 20 20 20 23 24 24 29 30 27 25 23 24 24 25 25 25 25 25 25 24 24 24 25 27 25 26 25 24 25 30 33 33 32 32 31 31 30 31 31 28 27 29 28 29 27 26 27 31 28 30 31 23 21 28 22 23 24 25
17 17 17 16 15 17 17 16 17 16 16 17 17 17 17 17 17 17 18 18 17 17 17 18 19 20 20 20 19 20 22 21 23 23 21 30 27 25 25 24 24 24 25 26 25 26 25 25 25 25 25 25 26 20 19 21 27 32 35 33 33 32 30 29 30 30 29 29 28 29 31 30 27 26 27 29 28 25 26 22 28 25 21 24 24
16 17 17 15 16 17 17 16 16 16 16 17 16 18 18 17 17 17 18 17 17 17 18 19 19 18 19 19 20 22 21 23 22 20 21 23 26 25 25 25 24 25 25 26 26 27 27 26 25 25 26 25 30 22 21 24 25 27 29 30 27 32 29 30 28 27 30 29 30 29 30 32 31 27 28 30 29 27 27 24 24 22 24 22 25
17 17 16 16 17 17 16 16 16 17 17 18 17 17 17 18 18 18 18 18 17 17 19 18 18 17 17 18 20 21 20 18 20 21 21 22 23 27 25 25 26 25 25 26 26 26 27 28 27 27 28 32 32 29 30 29 28 27 27 27 27 24 21 26 30 30 28 30 30 30 29 32 34 30 30 27 28 28 27 23 25 24 24 22 27
17 17 16 18 18 17 16 17 17 17 17 17 17 17 18 19 19 19 19 16 16 19 18 18 18 17 17 18 20 20 19 18 20 22 22 22 23 21 26 25 25 25 25 26 26 27 27 28 29 29 31 32 31 32 34 36 31 30 28 27 25 24 21 20 21 30 30 31 32 34 31 32 35 34 28 30 29 29 26 27 25 26 28 30 29
17 18 18 18 18 17 17 17 17 17 17 17 17 19 20 20 17 17 16 17 18 17 17 18 17 17 17 17 18 19 20 18 20 21 22 22 21 17 25 25 25 25 25 25 25 26 26 28 30 30 31 31 31 35 36 35 36 35 33 33 33 32 25 23 22 21 22 27 28 34 35 31 38 36 35 31 31 29 28 28 24 25 24 30 26
18 18 19 18 18 17 17 17 18 17 17 17 18 19 18 18 19 18 17 17 17 17 17 17 16 16 16 16 17 19 20 17 19 21 21 22 20 12 20 20 23 22 26 25 25 25 25 28 27 29 31 31 34 36 36 36 35 35 33 33 34 33 34 32 29 29 29 27 28 30 37 37 37 38 38 35 33 33 30 31 32 28 26 20 17
20 19 19 18 18 17 17 17 17 16 17 17 18 18 18 18 17 15 16 16 16 15 15 15 16 17 16 16 18 20 21 17 19 20 21 21 18 19 20 20 20 21 21 21 21 26 26 28 28 30 31 31 29 30 31 37 35 33 34 33 35 35 34 23 22 24 29 31 30 32 34 37 33 38 37 35 32 29 29 30 30 30 28 20 21
20 19 19 18 17 17 16 17 16 16 16 17 17 17 17 17 16 14 15 16 15 15 14 15 15 15 16 17 18 19 20 18 18 19 20 22 17 22 21 22 22 22 22 20 21 21 23 27 29 31 32 33 30 29 29 29 33 34 33 34 36 36 37 36 29 25 25 29 30 32 33 36 37 38 38 38 38 33 28 32 32 28 21 23 22
19 19 19 17 17 15 15 16 17 16 16 17 16 16 16 16 16 14 15 15 16 15 14 16 16 15 16 17 18 17 19 18 18 19 19 21 20 21 21 23 22 23 22 22 22 22 23 23 25 30 34 34 28 29 29 33 35 33 32 34 37 38 39 39 37 34 24 25 25 24 24 23 24 28 31 31 31 26 27 31 29 26 26 22 24
19 19 18 16 15 14 14 15 15 16 17 15 15 16 16 15 13 13 13 14 15 15 15 17 17 17 16 15 14 17 18 16 17 19 19 19 23 20 22 22 23 24 23 24 23 24 24 20 21 24 29 30 28 28 29 31 35 33 33 32 36 40 41 40 35 34 36 34 32 31 26 23 24 21 20 16 17 18 24 28 24 24 25 21 21
18 17 16 14 13 14 13 14 14 15 16 15 15 14 13 14 14 13 13 14 15 15 15 16 16 17 16 16 16 17 18 19 20 19 19 19 20 23 20 22 22 22 23 25 25 24 25 26 23 22 28 28 28 28 28 28 34 34 33 30 30 34 37 34 32 35 32 32 31 30 29 27 25 22 20 21 21 18 17 17 18 21 21 18 18
16 15 14 14 14 14 13 14 14 13 13 14 13 12 12 13 12 12 13 13 13 14 14 14 15 15 16 15 17 16 17 18 19 18 19 19 19 18 20 21 21 21 22 25 26 26 27 28 26 24 29 29 28 29 28 28 27 33 31 28 29 33 31 27 34 29 30 29 28 27 27 26 24 22 20 21 17 17 15 13 15 16 17 17 17
15 15 15 15 14 14 13 12 12 13 12 12 12 12 11 11 11 10 11 11 13 14 13 13 14 15 14 15 15 16 14 13 19 16 18 20 19 18 20 20 22 20 21 24 25 26 26 27 27 27 28 28 27 28 28 29 29 31 31 30 31 31 36 30 28 29 28 28 27 25 25 26 27 26 23 21 20 20 19 16 13 13 12 14 16
16 16 15 15 14 14 13 13 12 11 11 11 11 12 10 11 10 9 9 11 13 14 14 13 13 15 14 15 15 15 16 15 12 18 17 18 19 19 17 17 17 20 20 23 23 24 24 25 25 25 26 26 27 27 27 29 23 30 32 31 31 31 28 27 28 25 24 24 25 25 25 26 26 25 24 25 23 20 18 19 17 15 13 12 13
15 15 14 14 14 14 14 13 12 11 12 11 10 11 10 9 9 9 9 10 12 14 15 14 15 15 16 16 16 16 15 15 10 12 18 17 17 18 18 18 18 21 20 20 22 23 24 25 25 25 24 25 25 25 24 25 32 30 31 32 30 26 30 26 28 25 25 28 25 24 25 24 23 24 24 22 21 22 20 20 18 17 15 12 11
16 15 15 15 14 14 13 13 12 11 11 10 10 11 9 8 10 9 9 11 12 13 13 14 15 15 16 17 17 17 17 16 17 15 14 14 15 17 18 18 18 17 20 19 19 21 18 20 22 22 23 23 23 21 20 23 29 28 29 29 28 28 26 27 27 28 25 25 25 27 24 24 25 24 23 21 20 19 22 22 18 16 15 14 10
16 17 16 15 15 15 14 13 12 11 10 9 8 8 9 8 9 9 9 10 12 12 13 14 15 16 16 16 16 16 16 17 19 19 14 13 12 14 16 16 16 17 16 18 15 17 18 19 19 21 20 23 28 27 25 27 24 24 25 28 29 28 25 25 32 29 26 24 25 26 23 25 27 25 22 20 25 27 26 26 26 27 26 22 18
16 15 15 15 13 14 15 14 13 11 10 10 9 8 8 7 8 8 8 10 11 12 13 13 14 15 15 15 15 15 16 18 20 20 20 20 21 20 21 21 14 12 19 20 15 20 23 21 20 16 15 18 18 15 19 21 25 29 31 30 28 29 28 29 27 26 26 24 23 23 26 25 23 26 27 28 30 30 26 25 25 24 24 23 18
18 17 17 16 16 15 15 8 11 13 13 12 11 10 9 7 6 6 8 9 10 11 12 12 13 14 14 15 15 15 17 18 20 21 20 21 21 21 21 20 22 21 22 22 21 20 21 12 17 23 24 26 30 29 30 30 29 26 29 28 27 27 24 21 19 25 26 24 24 26 27 28 30 28 27 28 28 28 26 24 26 24 25 26 26
17 16 16 16 16 14 14 15 15 13 13 12 11 9 8 9 8 6 6 6 6 8 10 10 10 11 12 14 15 16 17 19 19 10 16 10 14 18 20 20 21 20 17 16 20 18 19 22 25 28 29 27 28 32 32 31 30 29 26 28 28 27 27 26 29 29 27 27 28 28 29 29 29 28 29 31 28 27 27 24 28 27 25 26 26
15 16 16 17 16 15 14 14 13 13 13 13 12 11 5 5 6 8 7 5 7 6 4 10 11 12 13 11 10 13 15 15 11 13 13 14 15 14 12 14 15 18 17 19 14 17 20 21 24 26 26 28 29 28 28 29 28 28 26 21 30 28 26 26 27 26 26 27 26 28 29 28 29 29 30 30 30 30 28 22 26 29 29 27 27
16 15 15 16 16 16 15 13 14 14 13 12 11 11 10 13 10 11 11 9 7 8 9 11 9 8 12 12 9 8 10 10 10 11 12 14 15 15 14 14 16 17 16 18 17 20 22 23 24 23 23 25 25 26 26 26 27 27 26 24 23 26 28 27 27 26 25 25 25 27 26 27 28 28 28 30 28 35 34 28 26 26 28 26 25
17 16 17 15 14 14 14 13 12 13 12 12 12 11 11 10 9 11 15 13 12 11 10 10 10 11 13 13 10 12 7 6 10 11 11 12 13 14 15 14 14 16 16 12 16 20 20 22 23 23 23 24 24 23 24 25 25 25 26 26 27 25 25 26 24 24 24 26 28 27 28 28 27 26 27 28 27 31 30 29 29 27 24 26 25
17 16 16 15 14 14 13 13 12 13 13 13 12 12 12 11 11 8 10 9 11 11 10 9 9 10 10 10 11 8 8 10 10 9 10 10 12 12 13 14 13 12 12 15 19 20 21 23 25 25 25 25 25 24 24 24 25 24 24 25 27 28 27 26 25 26 24 25 24 22 21 25 26 25 26 28 29 32 31 32 27 26 24 25 27
17 16 15 15 15 14 14 13 13 13 12 13 13 12 12 11 10 9 9 7 10 6 8 9 7 5 6 6 6 7 8 8 9 9 9 9 10 11 10 13 8 11 13 21 20 21 23 24 24 25 26 24 25 23 23 25 25 24 23 25 27 29 30 30 30 28 25 26 25 24 24 26 28 25 25 27 29 28 33 30 29 30 28 25 24
14 12 14 13 16 15 14 13 13 12 11 12 11 11 11 10 9 10 11 10 8 8 6 10 9 6 8 6 6 7 8 8 8 8 7 8 9 12 12 17 20 21 21 22 22 23 22 24 24 25 26 26 25 22 24 25 26 25 25 26 27 28 29 28 28 29 28 27 27 26 24 24 24 24 24 28 28 27 28 28 29 28 26 26 25
13 13 14 14 13 12 12 12 12 12 13 12 11 11 10 9 11 12 11 11 11 10 9 8 8 4 7 7 8 7 7 7 8 6 5 6 6 9 14 16 16 19 20 21 22 22 21 22 23 24 25 24 24 24 24 24 25 25 26 25 23 26 27 27 27 28 25 27 26 26 24 25 24 25 25 26 26 24 24 25 26 23 26 28 24
13 13 14 14 13 11 11 10 11 12 8 7 9 10 10 10 10 11 11 11 11 11 12 10 10 10 7 9 6 5 7 7 8 7 4 4 7 10 13 15 16 18 19 20 21 20 22 23 23 23 24 24 24 24 23 23 24 24 18 24 25 25 25 24 27 22 25 27 28 26 25 26 25 24 25 25 25 26 24 21 21 23 24 28 21
14 15 14 13 11 11 10 11 11 6 9 10 10 10 10 11 11 11 11 12 11 11 12 11 6 11 12 10 5 5 11 7 9 9 8 6 7 10 13 13 15 16 18 19 19 19 21 21 22 22 23 23 22 22 23 23 24 23 22 23 20 20 19 24 22 23 22 25 27 26 26 26 26 25 23 23 24 24 25 23 24 27 25 24 26
12 10 10 10 8 13 12 12 11 12 11 11 11 10 10 11 10 11 12 12 12 10 12 11 11 11 11 9 9 5 8 11 9 10 10 9 9 10 13 14 15 16 17 18 18 18 20 20 20 20 20 22 21 21 22 22 22 20 21 19 20 21 24 26 26 25 26 26 27 27 26 26 25 25 23 23 23 21 22 22 22 24 27 28 27
12 12 10 9 10 12 10 10 11 12 12 13 13 12 12 12 13 12 12 11 11 10 12 12 12 12 9 8 10 9 12 11 8 9 9 9 10 12 13 13 14 15 16 17 18 18 18 20 19 19 19 20 20 20 20 20 19 18 19 19 21 22 22 23 24 24 24 23 25 26 26 24 24 24 23 23 22 21 20 21 21 21 22 21 21
13 13 9 10 9 12 10 10 11 13 12 13 13 13 14 14 13 11 10 10 10 10 12 12 12 12 9 9 3 4 11 12 12 11 12 10 9 13 13 13 10 14 15 16 16 17 18 18 18 17 18 18 18 18 19 19 17 17 18 18 19 19 21 20 20 21 20 20 22 24 25 24 23 24 24 22 16 20 20 19 20 21 21 21 22
12 12 13 13 12 12 12 12 12 12 10 10 13 13 13 13 13 13 12 11 12 11 10 11 11 11 7 6 7 8 11 12 12 11 12 11 12 12 11 12 12 12 13 14 14 14 15 15 14 13 12 12 13 13 14 15 16 16 17 18 19 19 20 22 21 19 18 20 20 21 21 23 24 23 23 15 21 22 22 21 19 19 19 20 20
13 14 16 13 14 13 14 13 11 11 12 13 14 10 12 13 13 13 13 12 12 12 9 11 13 10 9 6 9 9 13 13 7 12 12 12 12 12 11 9 11 11 11 11 10 10 9 9 10 11 10 10 13 11 12 13 14 15 16 16 17 18 18 19 19 19 19 18 19 17 17 21 24 24 22 20 21 21 21 20 19 19 18 18 17
13 14 14 14 15 13 11 10 11 12 13 12 12 12 12 12 13 12 14 14 12 10 11 13 11 11 10 10 11 12 14 14 13 13 12 12 12 9 9 10 11 11 11 11 10 9 7 8 10 10 11 11 12 12 10 10 10 11 13 15 16 16 17 17 17 17 17 18 18 19 21 20 21 24 21 20 20 21 21 19 19 19 18 17 17
13 15 15 15 14 13 14 12 12 12 11 10 11 12 12 13 13 14 14 15 14 14 14 13 12 9 11 11 12 14 14 15 13 12 11 12 10 11 9 10 8 10 8 9 8 9 6 7 7 7 7 8 10 10 10 10 11 10 11 12 14 17 17 16 14 14 14 14 17 18 20 22 22 23 23 22 20 19 21 18 19 14 17 16 15
15 15 16 16 15 14 13 13 11 12 12 13 13 14 13 13 13 13 13 14 14 14 15 14 12 9 11 13 13 12 13 14 14 14 12 10 10 10 9 9 8 9 8 9 7 6 6 7 7 8 8 8 8 11 13 12 12 12 13 12 12 13 13 13 12 12 12 12 15 16 19 18 19 19 17 21 22 21 18 17 15 17 16 15 14
13 14 15 15 16 14 14 12 11 12 13 13 14 15 14 14 14 13 12 15 14 13 14 15 15 15 14 14 11 14 14 14 12 11 12 13 12 12 9 8 8 9 9 8 6 7 6 6 6 5 5 6 6 10 12 13 13 14 13 13 14 15 13 15 13 11 11 11 12 14 15 17 18 18 18 19 19 20 17 19 17 14 15 16 15
13 14 14 13 13 14 13 12 13 9 13 13 14 14 14 13 13 13 13 14 15 15 15 15 15 16 14 15 14 14 14 14 13 13 12 11 11 10 9 7 8 9 8 8 8 9 8 7 6 5 6 5 5 7 8 11 12 12 13 13 14 14 13 12 12 14 11 12 11 11 12 16 17 16 16 15 15 17 18 20 18 19 16 16 15
14 14 14 14 14 15 14 14 14 15 15 15 14 15 14 14 14 14 14 15 15 15 16 16 17 16 16 16 15 14 13 12 13 14 11 11 13 12 9 8 6 8 9 10 10 8 8 8 7 8 7 7 6 6 7 10 11 11 11 12 9 10 9 9 8 12 13 12 11 12 12 13 14 13 14 13 15 16 17 15 15 16 17 15 16
15 14 15 15 15 15 14 13 14 15 15 14 15 15 14 14 14 14 15 15 15 15 15 16 16 17 17 16 15 15 15 15 14 15 14 12 11 9 9 8 8 8 9 9 10 9 9 8 7 8 7 7 7 7 7 7 8 6 6 7 7 8 9 10 7 9 12 10 11 11 12 12 12 14 15 15 13 13 14 15 14 13 15 15 14
15 16 16 16 16 15 14 13 14 15 15 15 16 16 16 16 16 15 15 15 16 17 16 17 17 17 17 17 16 16 16 16 16 15 15 14 14 11 9 9 9 8 9 9 10 10 10 10 11 9 9 9 8 9 9 8 7 6 3 4 7 7 7 7 9 8 9 8 9 11 12 11 11 13 15 16 15 16 13 13 13 13 14 15 14
Wind_Speed
9 8 8 9 10 10 10 10 11 10 10 10 10 11 11 11 10 9 9 10 9 10 10 10 11 11 11 11 12 12 12 12 10 10 10 11 10 11 11 12 12 11 11 12 12 12 11 11 11 11 12 11 10 10 10 11 11 10 9 10 10 10 9 9 13 15 15 12 14 13 12 11 13 13 14 12 12 12 14 15 14 12 11 12 13
8 9 8 8 10 10 10 10 10 10 10 10 11 10 10 10 9 9 10 9 9 10 10 9 10 11 11 12 12 12 12 12 11 10 11 11 11 8 9 11 12 12 12 12 13 12 12 12 12 12 11 11 11 10 10 10 11 11 10 10 10 10 9 9 10 10 16 14 13 14 14 12 13 11 12 14 14 11 12 13 13 14 14 12 13
9 9 9 9 10 10 10 10 10 11 11 10 11 10 10 10 9 10 9 8 8 9 10 10 10 11 11 12 12 12 13 12 11 11 11 12 11 11 10 10 11 11 11 12 13 13 13 13 13 13 10 12 12 10 11 12 12 12 12 10 10 10 11 10 9 12 14 15 13 14 13 13 12 12 12 12 13 11 13 13 12 12 11 13 13
9 10 10 11 11 11 10 10 11 10 11 10 11 10 9 9 9 9 9 8 9 9 9 10 10 10 11 12 12 12 13 12 12 11 11 11 11 11 11 11 11 11 12 12 13 13 13 13 13 13 12 12 12 12 11 13 13 12 12 12 11 12 11 10 10 9 9 13 14 12 13 13 13 13 11 11 12 12 12 12 11 10 12 12 13
10 10 11 11 11 10 10 10 10 11 10 9 10 10 9 9 8 9 9 9 9 8 9 9 9 10 10 12 12 12 12 12 13 12 11 10 11 11 11 11 11 11 12 12 13 13 13 13 14 13 13 13 13 13 13 16 14 12 13 12 12 12 11 13 13 11 11 12 14 12 11 13 13 14 14 13 11 11 12 11 9 13 14 14 13
10 10 10 10 10 10 9 9 10 10 10 9 10 9 9 9 8 8 9 9 9 9 9 8 9 10 10 11 11 12 12 13 13 13 12 12 11 11 10 11 11 11 11 12 12 13 13 13 13 13 14 13 13 13 14 16 14 14 15 14 14 13 14 14 13 14 13 12 12 15 11 12 12 12 15 13 12 12 9 10 11 12 13 14 13
9 9 9 9 9 9 9 9 8 8 9 9 8 8 8 8 8 8 8 9 9 9 9 9 8 9 10 10 11 13 13 13 14 13 13 12 11 11 11 11 11 10 11 12 13 13 13 13 13 13 14 13 14 14 15 17 15 16 15 16 16 16 16 15 14 14 14 14 13 12 12 11 12 14 14 15 13 12 11 9 11 12 13 13 13
8 8 8 8 9 8 8 8 8 8 8 8 8 8 8 8 8 8 8 9 9 9 9 9 8 9 9 10 12 13 13 13 14 15 14 13 11 12 11 11 11 11 12 12 13 13 13 13 13 13 14 13 14 14 15 15 15 16 16 16 16 17 16 16 16 14 13 13 12 13 12 12 12 12 13 13 12 8 8 11 12 10 11 13 15
8 8 8 8 8 8 8 7 7 8 8 8 8 8 8 8 8 8 8 8 7 8 8 9 9 10 10 10 10 10 11 11 11 14 15 15 12 11 11 12 12 12 13 13 13 13 13 12 12 13 15 17 19 17 16 16 15 17 17 17 17 17 16 15 15 15 14 13 14 13 13 13 12 12 12 11 13 13 9 8 11 10 10 11 13
8 8 8 8 7 8 8 8 8 8 8 8 8 8 8 8 8 8 9 8 8 8 8 9 9 10 10 10 10 10 10 9 14 18 16 15 13 10 10 11 12 13 13 13 14 14 14 13 13 18 18 19 19 16 15 16 19 18 18 17 17 17 16 15 14 14 14 14 13 14 15 14 12 12 12 13 14 13 11 9 12 9 10 11 12
8 9 8 7 8 8 8 7 7 8 8 8 8 9 9 7 8 8 9 8 8 8 8 10 9 9 9 9 11 12 10 11 17 16 17 19 14 10 11 11 13 13 13 13 13 14 14 14 14 16 17 19 18 16 15 18 20 21 21 21 20 17 16 16 14 14 14 13 14 14 14 17 16 14 14 14 13 15 12 10 8 10 11 11 11
9 8 8 8 9 9 8 8 8 8 8 9 8 8 8 9 9 9 8 9 8 8 9 9 9 8 8 9 12 10 10 14 16 17 17 17 15 11 12 12 12 12 12 13 12 13 14 14 14 13 14 18 18 17 20 22 21 21 21 20 20 19 17 14 15 15 14 14 15 15 14 16 17 15 14 13 13 14 14 10 9 11 11 10 11
9 8 8 9 9 8 8 8 8 8 8 8 8 8 9 9 10 10 10 8 8 9 9 9 9 8 8 10 11 10 10 15 15 16 17 17 15 12 11 12 11 12 12 13 13 13 13 13 14 14 14 22 18 18 20 21 22 22 21 20 19 18 17 16 17 16 16 16 16 18 16 16 18 17 15 15 14 14 13 13 12 12 12 13 11
9 9 9 9 9 8 8 8 8 8 8 8 8 9 10 10 9 8 7 8 8 8 9 9 8 9 8 8 9 9 11 14 15 16 16 17 15 10 9 9 10 12 13 12 12 13 13 14 14 15 16 17 17 20 19 19 20 19 18 18 18 20 19 18 17 17 14 13 14 17 18 17 18 19 20 18 17 14 13 13 14 13 12 14 13
9 9 10 9 9 8 9 8 9 9 8 8 9 10 9 8 8 7 7 8 8 8 8 8 7 8 8 8 8 9 9 13 14 16 16 16 15 9 9 8 9 9 9 11 14 14 14 14 15 15 16 17 17 20 19 20 20 18 18 18 19 18 18 18 16 15 15 14 15 17 19 20 20 22 21 18 19 17 14 15 16 16 12 10 10
10 10 10 9 9 8 9 8 8 8 8 9 9 9 9 8 8 7 7 7 7 7 7 7 7 8 8 8 9 10 10 13 15 16 16 17 15 9 9 10 10 10 10 10 10 10 12 15 15 16 17 17 21 23 21 20 20 19 19 19 19 18 17 15 16 16 17 16 16 16 17 20 23 21 20 18 17 15 13 14 16 16 15 11 11
11 10 10 9 9 8 8 9 8 8 8 9 9 8 8 8 7 6 7 7 7 7 6 6 6 7 8 8 9 9 10 13 15 16 16 18 13 10 10 10 10 11 10 10 10 10 11 14 16 16 17 18 21 22 22 22 19 19 19 19 19 18 18 18 19 19 19 21 23 24 24 24 23 25 27 29 23 20 13 14 15 14 12 11 11
10 10 10 9 8 8 7 8 8 8 8 8 8 7 7 7 7 5 6 6 7 6 6 7 7 7 7 8 9 8 10 11 14 16 16 17 15 10 10 10 11 11 11 11 10 10 12 16 17 15 17 18 22 22 22 22 20 19 19 20 21 21 21 20 17 16 19 20 20 20 19 19 20 20 18 19 21 18 13 15 15 11 14 11 11
10 10 9 8 7 7 7 7 7 8 8 7 7 8 7 7 5 5 5 6 6 6 7 7 7 7 7 7 9 9 9 10 13 15 16 16 14 9 10 10 11 11 11 11 11 11 12 12 15 15 18 18 22 21 22 21 20 19 19 19 20 23 21 22 18 18 19 19 17 17 15 16 14 12 12 15 11 10 12 16 11 11 12 10 10
10 9 8 7 6 6 6 7 7 7 7 7 7 6 5 6 6 6 6 6 6 6 6 7 8 7 7 7 7 8 9 9 12 14 15 14 16 11 8 10 10 11 11 11 11 12 12 13 13 18 22 22 22 22 21 21 20 19 18 16 17 20 19 19 18 17 18 17 17 16 16 15 13 12 11 10 10 11 8 6 9 10 10 9 9
8 8 7 6 7 6 6 6 7 6 6 6 6 5 5 5 5 5 6 5 5 6 6 6 6 7 7 7 8 8 8 9 10 13 15 15 14 13 9 10 10 9 10 12 12 12 12 13 12 18 22 22 21 22 21 21 20 17 17 14 15 19 20 14 18 23 16 17 15 13 12 12 12 11 10 11 8 9 7 7 8 7 7 7 8
7 7 7 7 7 6 6 6 5 5 5 5 5 5 4 4 4 4 4 4 6 6 6 6 6 6 6 6 7 7 7 8 10 11 13 15 15 13 9 10 10 9 10 11 12 12 12 12 12 17 21 21 21 21 21 20 21 14 16 23 24 24 19 16 14 12 12 14 12 12 12 12 12 12 11 10 9 9 8 7 6 7 5 5 6
8 8 7 7 7 7 6 7 5 4 4 4 5 5 4 4 3 3 3 4 5 6 6 5 6 6 6 6 6 6 7 6 8 10 13 14 14 14 12 10 13 10 9 11 11 11 11 12 13 19 20 19 19 20 20 22 18 16 23 24 24 24 20 13 14 11 10 10 10 12 12 13 12 12 11 11 11 10 9 9 9 7 6 5 5
8 7 7 7 7 7 6 6 5 5 5 4 4 4 4 3 3 3 3 3 4 6 6 6 6 6 7 6 6 7 6 6 6 8 11 12 12 13 13 13 12 10 9 9 10 10 11 12 13 19 18 18 18 17 17 18 16 21 21 23 23 21 16 14 14 13 13 14 14 12 12 11 11 11 11 11 11 12 10 10 9 9 8 6 4
8 8 8 7 7 6 6 6 5 4 4 4 4 4 3 2 3 2 3 4 4 5 5 5 6 6 6 7 7 7 7 7 7 8 9 10 10 11 12 12 13 12 9 9 9 9 11 15 16 16 16 17 17 16 15 18 22 21 20 20 20 14 13 12 13 14 13 13 12 13 12 11 12 12 13 11 11 9 9 6 6 7 6 6 5
8 9 8 7 7 7 7 6 5 4 4 2 2 2 3 2 3 3 3 3 4 5 5 5 6 6 6 7 7 7 7 7 8 9 9 10 9 9 11 12 12 12 10 9 11 11 12 14 14 15 15 16 14 14 13 13 17 19 17 18 15 14 13 13 18 14 14 13 13 13 11 11 13 13 12 11 11 11 10 12 13 13 13 10 9
8 7 8 7 6 7 7 6 5 5 4 3 3 2 2 1 2 2 2 3 4 4 4 5 6 6 6 6 6 6 7 7 9 9 9 9 9 10 10 10 12 10 10 9 10 10 11 11 10 11 10 13 13 13 15 15 14 15 15 15 13 13 14 14 14 13 15 13 11 11 13 12 12 13 13 13 15 13 13 11 12 12 12 11 8
9 9 9 7 7 7 7 6 6 5 5 4 4 3 2 2 1 1 2 2 3 4 4 5 5 5 5 6 6 6 7 7 9 9 9 9 9 9 9 9 10 9 9 10 9 9 9 9 10 11 12 13 15 14 15 14 14 13 14 13 12 13 14 16 14 12 12 12 12 13 13 14 15 14 13 11 12 14 13 11 12 11 11 12 12
9 9 8 7 7 6 6 7 6 5 5 5 4 3 2 3 2 1 1 0 1 2 3 3 3 4 4 5 6 6 7 8 8 8 8 8 6 7 9 9 9 9 10 12 9 8 9 10 12 13 14 13 14 15 15 15 14 14 13 13 13 13 12 12 14 14 14 14 14 14 15 14 15 14 15 15 14 13 14 12 12 13 12 11 11
8 8 7 8 7 7 6 6 6 5 5 5 4 4 3 3 3 2 1 4 3 3 3 3 4 4 5 4 3 5 6 6 9 10 10 11 11 10 10 11 11 10 13 16 9 7 8 9 11 12 12 13 13 13 13 13 13 13 12 14 13 13 11 12 12 13 13 13 13 14 14 14 14 14 15 16 15 14 14 14 12 13 13 12 11
7 7 7 7 7 7 6 6 6 5 5 5 4 4 3 5 9 9 8 6 5 6 7 9 6 6 5 4 2 7 8 9 8 9 9 10 12 11 11 11 12 13 13 9 7 9 10 11 11 11 11 11 12 12 12 12 13 12 12 11 10 11 12 11 12 10 12 12 13 13 13 14 14 14 14 14 14 18 17 14 12 13 12 12 12
8 7 7 7 6 7 6 5 5 5 5 4 4 4 4 3 3 9 12 11 10 9 9 8 8 8 10 9 5 4 2 4 8 8 8 9 10 11 12 11 11 12 13 11 7 9 9 10 10 11 11 11 11 11 11 11 12 12 12 12 13 12 12 12 12 12 10 12 14 14 14 14 13 13 14 14 14 15 15 14 13 14 12 12 12
9 8 7 7 6 7 5 5 5 5 6 5 5 4 4 4 3 1 4 8 9 9 8 8 8 8 8 8 9 7 7 8 9 7 7 7 8 9 11 11 10 10 11 7 8 9 9 10 11 12 12 11 11 11 11 11 11 11 11 11 12 13 13 13 14 13 11 11 10 10 10 12 13 12 10 12 14 15 15 15 12 13 12 12 13
10 8 7 7 7 6 6 5 5 5 5 5 5 4 4 4 3 3 2 2 3 4 7 8 7 5 6 5 5 5 6 7 7 7 6 7 8 9 9 6 7 5 7 9 9 9 10 11 11 12 12 11 11 10 10 11 11 11 11 12 13 14 15 15 15 13 12 12 12 11 11 10 10 10 12 13 12 14 17 15 15 14 14 12 11
7 8 11 9 7 7 6 5 5 5 4 4 4 4 4 4 3 4 4 3 2 2 1 3 6 6 3 3 4 5 6 7 7 6 5 6 7 10 11 6 8 9 9 10 10 10 10 11 11 11 12 12 12 10 11 12 12 12 12 12 12 13 14 13 13 14 13 12 13 12 11 12 12 11 11 13 12 12 13 15 14 15 13 12 12
6 5 6 7 6 5 5 5 5 5 5 5 4 4 3 3 4 5 4 4 4 3 3 2 2 2 5 6 7 5 5 6 6 5 4 5 6 8 5 7 6 8 9 9 10 10 9 10 10 11 11 11 11 11 11 11 11 11 12 11 11 12 12 12 13 13 13 13 12 13 13 12 12 12 12 13 14 12 11 11 12 10 13 14 12
6 5 6 6 5 4 4 4 4 5 5 2 3 3 3 3 4 4 4 4 4 4 4 3 3 3 5 4 3 4 6 6 7 6 4 3 6 5 5 6 6 7 9 9 9 9 10 10 10 10 11 11 11 10 10 11 11 11 11 11 11 11 12 11 13 11 12 13 13 13 13 12 12 12 12 12 12 13 12 11 11 12 12 15 14
7 6 6 6 5 4 4 4 4 3 3 3 3 3 4 4 4 4 5 5 4 4 5 4 3 4 4 2 3 2 4 6 8 8 7 6 2 3 5 5 6 7 8 8 8 8 9 9 10 10 10 10 10 10 10 10 10 10 9 10 9 9 13 12 13 12 12 12 13 13 13 12 12 12 11 11 11 11 12 11 11 12 12 14 14
5 7 9 9 6 5 5 5 4 5 4 4 4 4 4 4 4 4 4 5 5 4 5 4 4 4 4 3 3 1 3 3 2 3 3 3 3 3 5 5 6 6 7 8 8 8 9 9 9 8 9 9 9 9 9 9 10 8 9 9 9 10 11 12 12 12 12 12 13 12 12 12 11 11 11 11 11 10 10 11 11 11 11 12 12
5 5 5 7 5 5 4 5 4 5 5 5 5 5 5 5 5 5 5 4 4 4 5 4 5 5 3 2 3 3 4 4 3 3 3 3 3 5 5 5 5 6 7 7 8 8 8 8 8 8 8 9 9 9 9 9 8 7 8 8 9 10 10 11 11 11 11 11 11 12 12 11 11 11 11 10 10 9 10 10 10 11 11 10 10
5 5 6 7 6 5 4 4 5 6 5 6 5 5 6 6 6 5 4 4 4 4 5 5 5 5 3 3 0 2 4 5 4 4 4 3 3 5 5 5 3 5 6 6 7 7 7 8 8 7 7 7 7 8 8 8 7 7 8 8 8 9 9 10 10 10 10 10 10 11 11 11 11 11 11 10 11 11 9 9 9 10 10 10 11
5 5 6 5 5 5 5 5 5 5 5 4 5 6 6 6 6 6 5 5 5 5 3 5 4 4 3 6 6 7 4 5 4 4 4 4 4 4 4 4 4 4 4 5 6 5 6 6 5 4 4 5 5 5 5 6 7 7 7 8 8 9 9 10 10 9 9 9 9 10 10 11 11 11 11 12 10 10 10 9 8 8 9 9 9
6 6 7 6 6 6 6 6 5 5 5 5 6 6 6 6 6 6 5 5 5 5 3 4 5 4 3 5 6 7 5 5 5 5 5 4 4 4 4 3 4 4 4 4 3 3 3 3 3 4 3 4 5 4 4 5 5 6 7 7 7 8 8 8 9 9 9 8 9 9 9 11 11 11 10 9 10 10 10 9 9 8 8 8 8
6 6 6 6 7 6 5 4 4 5 5 7 6 5 5 5 5 5 6 6 5 4 4 6 4 4 4 3 5 5 5 6 5 5 5 4 5 3 3 3 4 4 4 3 3 3 2 2 3 3 4 4 5 5 4 3 4 4 5 6 7 7 8 8 8 7 7 8 8 9 10 10 10 11 10 9 10 10 10 9 9 9 8 7 7
6 6 6 7 6 6 6 5 5 5 5 4 5 5 5 5 5 6 6 6 7 6 6 6 5 3 4 4 5 6 6 6 6 5 4 5 5 4 3 3 2 4 2 3 2 3 2 2 2 3 3 3 3 4 3 3 4 3 4 4 5 7 7 7 6 6 6 6 7 8 9 10 10 10 10 10 10 9 10 9 9 10 8 7 7
6 7 7 7 7 6 6 5 5 5 5 6 6 6 5 5 5 6 6 6 6 6 6 6 5 3 4 5 5 5 5 6 6 6 5 3 3 3 3 2 2 3 2 3 2 2 2 2 2 3 3 3 3 4 5 5 5 5 5 5 4 5 5 5 5 5 5 5 6 7 8 8 9 8 10 9 9 9 9 8 8 8 7 7 7
6 6 7 7 7 7 7 6 5 5 5 6 6 7 6 6 6 5 6 7 6 6 6 7 6 6 6 6 4 6 6 6 5 4 5 6 5 5 3 3 2 3 3 2 2 2 2 2 2 2 2 2 2 4 4 4 5 5 5 5 5 6 5 6 5 5 5 5 5 5 7 7 8 8 9 9 9 9 9 9 8 7 7 7 7
6 6 6 6 6 6 6 5 6 6 6 6 6 7 6 6 5 5 5 6 6 6 7 7 7 7 7 7 6 6 6 6 6 5 4 3 4 3 3 3 3 3 3 3 3 3 3 2 2 2 2 2 2 2 3 4 4 4 5 5 5 5 6 8 5 6 4 5 5 5 6 7 7 7 7 7 7 8 8 9 9 8 7 7 6
6 6 6 6 6 6 6 6 6 6 7 6 6 6 6 6 6 6 6 6 6 7 6 7 7 7 7 7 7 6 6 5 6 6 4 4 5 5 3 3 3 3 3 3 3 3 3 3 3 3 2 2 2 2 2 3 3 3 4 4 4 6 6 6 5 4 8 5 4 5 5 6 7 7 7 7 7 7 7 7 7 7 8 7 7
6 7 7 7 7 7 6 6 6 6 7 6 7 7 6 6 6 6 6 6 6 6 6 7 7 7 7 7 7 7 6 6 6 6 6 4 4 3 3 3 3 3 3 3 4 3 3 3 3 3 3 3 2 3 2 2 2 1 2 1 4 6 6 7 5 5 6 4 4 4 5 5 6 6 6 7 6 7 7 7 7 6 7 7 7
7 7 7 7 7 7 6 6 6 6 6 7 7 7 7 7 7 7 6 7 7 7 7 7 7 7 7 8 7 7 7 7 7 6 6 6 6 4 3 3 3 3 3 3 3 4 4 4 4 4 3 4 3 3 3 3 2 2 0 2 4 5 5 5 4 6 6 6 3 4 5 5 5 6 7 7 7 7 6 7 6 6 6 6 6
Wind_Direction
82 80 79 77 77 77 77 76 74 72 69 67 67 65 65 64 62 61 57 54 48 45 42 38 36 33 30 28 26 25 25 24 22 18 19 18 19 17 11 9 6 4 359 359 360 355 350 346 346 348 346 341 339 340 343 343 340 335 334 333 329 331 335 327 317 311 308 312 307 296 290 275 268 261 262 253 250 241 227 231 225 214 215 220 217
87 85 80 78 79 78 77 76 75 73 72 70 69 68 64 61 61 59 58 52 49 46 43 40 37 33 31 28 26 26 24 23 20 19 17 16 17 15 9 7 6 3 360 359 357 359 353 350 348 348 346 342 339 341 345 344 342 337 335 334 329 325 328 321 314 310 305 312 310 310 302 279 267 262 254 259 253 240 231 231 228 222 220 217 220
91 89 86 83 81 79 78 77 77 76 74 71 68 67 65 62 58 59 56 55 50 47 43 42 38 36 35 32 28 26 22 20 17 15 15 14 11 9 6 5 3 359 357 357 357 355 354 352 352 350 347 344 343 342 346 344 341 336 332 331 327 322 321 320 315 310 310 304 306 303 302 299 282 274 263 254 250 238 233 229 225 223 219 216 216
94 91 89 86 82 80 78 77 75 74 73 69 66 64 65 64 60 59 58 53 53 48 46 43 42 37 38 35 32 28 24 21 18 15 14 11 9 7 3 3 1 358 357 356 357 357 354 352 353 351 349 345 344 344 345 343 340 335 331 329 327 324 320 317 310 299 297 297 302 302 300 298 294 286 273 263 256 248 240 233 225 222 224 219 218
97 95 93 88 83 81 77 76 75 71 70 68 66 65 63 63 59 58 58 57 52 51 49 45 43 42 38 35 32 28 25 20 16 14 11 7 5 3 0 359 357 357 359 359 360 358 355 354 352 352 350 345 346 345 344 341 339 335 331 330 326 323 320 317 312 305 298 294 296 295 293 289 288 286 281 272 264 257 249 235 218 227 224 222 223
98 97 94 91 86 82 79 77 74 73 73 70 66 64 62 60 61 58 55 57 56 52 51 46 42 41 39 35 32 31 29 24 19 13 9 6 4 1 358 357 358 0 360 360 1 0 356 354 353 352 351 348 346 344 342 340 337 333 330 328 325 321 318 314 311 309 301 292 291 295 297 296 296 284 277 266 263 264 249 235 234 226 222 222 219
101 99 94 92 89 83 80 78 77 75 72 68 67 64 62 60 59 58 56 56 54 53 50 49 44 40 38 34 32 31 28 24 19 12 8 6 4 3 1 2 1 2 2 1 1 1 358 356 354 354 351 348 347 344 341 339 336 331 328 326 323 321 318 314 311 308 304 300 295 288 291 289 285 288 284 274 256 255 254 249 238 226 223 220 218
104 101 99 93 90 86 81 80 78 74 72 69 65 62 60 60 58 56 56 56 54 51 47 44 43 41 38 35 33 35 30 26 19 12 7 4 1 5 5 4 3 3 2 2 2 359 357 356 354 354 350 349 346 341 341 338 333 327 325 322 320 318 316 314 312 308 303 301 294 297 292 291 289 280 280 275 264 248 236 248 252 232 223 222 222
106 105 101 96 91 90 86 78 76 73 70 66 64 61 60 59 59 58 56 56 52 49 48 43 42 42 40 37 34 30 28 22 18 10 7 6 5 7 7 8 6 4 3 2 2 360 357 354 352 350 347 345 342 338 335 333 329 325 321 319 316 313 310 308 308 307 303 299 297 294 292 289 284 287 283 274 262 257 238 217 245 242 232 225 223
109 105 102 101 97 92 87 82 76 72 69 67 64 63 62 60 60 59 56 54 51 46 45 43 41 40 37 34 32 31 26 23 4 1 1 4 5 9 9 11 8 7 4 1 1 359 357 354 349 348 346 345 341 336 334 327 322 317 314 314 312 310 305 302 300 301 302 299 296 298 294 289 286 284 283 281 281 270 250 232 245 243 240 234 232
108 109 106 102 98 92 86 80 76 73 69 67 66 65 64 62 61 59 55 51 48 46 43 42 39 37 35 33 31 32 27 14 359 1 358 1 5 11 13 11 12 9 5 2 358 355 353 352 349 347 347 345 343 342 336 329 321 314 308 304 301 299 301 298 292 295 296 293 294 290 286 286 283 280 277 283 285 277 263 248 232 239 238 233 230
110 109 108 104 98 92 87 84 77 72 69 67 66 65 64 62 59 55 54 50 47 46 44 40 38 34 32 34 34 28 25 12 360 1 360 359 2 8 21 16 12 10 5 1 359 356 353 351 349 348 347 346 344 343 339 333 323 315 311 305 300 291 282 279 290 293 288 291 291 286 285 282 285 281 278 278 279 284 275 252 238 239 238 228 229
112 111 107 101 97 92 89 85 80 75 70 68 65 64 61 60 56 53 52 49 50 47 40 39 37 33 31 33 32 25 25 10 359 1 2 359 354 354 28 19 14 14 8 5 2 358 354 350 349 348 347 346 346 345 340 334 327 322 315 311 308 308 306 290 269 269 283 280 283 285 281 283 283 279 277 274 276 279 285 273 250 238 236 238 227
113 111 107 102 99 96 94 89 81 75 71 67 64 61 59 57 59 58 58 53 49 46 42 41 38 35 31 29 32 27 26 6 359 1 3 357 350 343 26 17 18 18 16 11 7 2 358 354 350 348 347 346 347 346 338 334 331 327 325 324 322 318 313 306 299 286 275 277 279 281 284 281 276 279 278 280 279 273 275 274 270 248 239 238 236
115 112 108 106 106 102 98 90 82 76 70 67 64 61 58 60 58 56 55 51 48 45 39 39 35 33 30 28 31 30 26 5 2 1 1 355 339 347 14 10 10 11 8 11 12 10 3 358 354 351 349 348 350 344 337 336 333 330 327 326 324 323 319 319 319 315 307 296 287 281 280 278 274 271 271 268 263 264 261 267 272 273 266 248 247
116 115 114 113 109 104 98 91 84 78 73 68 67 64 61 59 58 55 58 57 55 52 49 44 38 36 32 27 30 30 26 13 4 2 358 356 333 7 9 12 8 4 4 3 4 4 7 5 0 357 352 350 348 339 335 336 338 335 332 330 328 325 323 320 314 307 298 292 287 279 276 274 273 271 266 262 263 267 280 290 288 271 261 245 232
124 122 120 117 112 107 101 96 88 81 75 73 69 65 64 60 57 51 60 59 56 55 53 49 43 37 32 29 24 27 27 15 6 3 359 356 345 9 8 10 8 5 6 2 1 359 360 4 4 0 355 352 343 335 336 335 344 341 336 334 332 329 328 329 325 313 301 294 288 281 276 275 275 276 267 256 250 254 262 271 263 260 244 230 229
132 128 123 121 116 113 107 100 95 85 79 75 71 68 65 64 60 47 58 61 60 53 56 59 54 43 31 33 16 13 22 13 7 1 360 358 346 1 9 12 10 8 6 4 2 360 356 355 358 357 352 348 338 336 338 343 348 345 342 338 336 336 334 332 327 323 316 309 304 299 295 295 296 298 286 264 252 242 224 236 242 245 245 225 229
138 133 128 124 120 116 110 103 97 91 85 77 71 70 63 62 62 62 65 70 65 64 56 58 54 47 37 28 13 9 10 8 7 359 358 360 355 359 9 8 7 7 5 6 4 2 358 0 358 355 349 340 337 339 341 347 349 349 347 340 337 337 335 330 325 325 328 327 327 326 323 322 316 316 319 318 309 271 224 228 243 238 242 229 224
139 132 130 128 124 122 116 110 101 98 94 86 77 73 73 72 65 67 66 68 68 62 61 56 51 44 30 25 25 18 8 3 4 352 358 359 360 350 14 6 1 358 4 6 6 6 3 359 359 357 347 341 340 340 343 347 352 352 350 341 335 333 328 324 324 326 324 326 324 327 326 326 321 322 324 327 335 348 334 292 257 247 247 242 219
139 138 135 134 131 127 124 119 111 98 93 91 89 84 78 80 71 71 71 66 66 62 55 51 49 45 35 27 24 22 17 0 360 353 354 356 2 358 6 11 355 351 1 8 7 6 1 358 355 352 343 339 339 340 341 345 349 352 349 342 334 324 325 327 329 329 327 327 326 325 328 330 329 328 331 333 331 339 331 318 316 301 269 256 239
142 142 141 136 132 131 128 120 114 107 103 106 106 97 88 80 77 73 73 71 68 61 49 46 46 40 39 29 25 16 12 8 360 357 356 352 355 4 5 6 354 345 357 8 3 4 358 352 352 344 337 336 338 340 341 343 346 353 344 339 335 338 338 336 327 325 325 330 326 329 331 331 334 338 336 338 341 337 329 317 301 298 290 295 284
147 144 139 137 136 135 133 133 126 122 119 117 111 104 99 91 82 75 77 79 72 65 54 45 41 38 33 30 23 18 5 13 10 0 357 351 352 355 358 359 349 353 359 7 3 356 354 349 344 336 333 334 338 340 343 346 350 348 343 345 342 339 340 335 336 327 323 322 326 332 332 334 336 337 337 340 342 336 328 329 323 317 308 294 277
145 142 140 140 140 141 141 139 137 137 135 131 118 112 103 100 85 72 57 57 66 59 51 41 39 36 30 24 24 17 13 5 16 9 354 351 346 353 354 356 1 0 353 9 358 355 353 348 335 328 333 338 338 340 342 349 348 343 347 348 345 343 344 338 338 335 331 337 337 335 335 332 329 333 340 340 338 338 334 329 333 339 334 317 338
151 150 151 149 148 146 147 150 152 153 148 147 135 127 123 130 96 76 64 58 54 58 50 43 36 30 27 22 18 15 10 10 9 10 351 341 340 352 351 358 356 354 355 6 357 354 336 329 329 335 335 343 340 345 351 354 348 344 345 350 352 351 347 340 339 338 337 340 337 336 331 333 338 333 332 336 336 339 342 327 339 353 346 357 19
159 160 157 156 155 155 156 157 162 163 164 164 149 127 121 114 94 83 69 60 54 52 45 39 34 27 26 21 15 9 6 10 10 7 0 355 356 355 350 357 355 346 343 352 329 328 339 331 332 341 354 353 355 1 357 350 339 339 345 357 358 354 352 342 345 345 344 336 336 335 332 333 339 334 334 340 355 2 348 354 357 7 7 7 6
162 159 162 163 161 168 167 171 171 172 182 184 174 161 155 138 119 100 71 57 58 51 45 34 30 24 20 13 6 6 11 15 12 6 6 359 1 2 7 3 353 351 1 354 345 354 344 337 332 320 337 336 349 351 357 350 349 357 0 359 358 355 353 354 347 341 341 337 331 333 339 338 336 344 353 355 5 7 1 0 5 4 6 8 13
169 173 172 172 174 178 180 152 171 177 187 191 187 180 181 187 168 91 54 47 35 48 34 31 26 18 9 5 2 9 15 20 18 6 360 0 358 360 4 2 0 358 359 350 337 340 340 338 347 359 360 4 6 7 5 2 0 359 357 353 352 354 352 345 339 347 348 343 340 341 345 346 353 352 352 356 5 8 2 9 7 7 10 18 24
178 174 174 177 183 183 186 174 189 187 185 194 210 210 193 183 196 143 155 306 23 4 11 11 7 6 350 1 357 6 12 19 10 341 336 347 353 352 1 3 359 354 346 331 320 343 351 1 5 3 4 4 3 3 1 2 360 356 353 354 355 359 354 355 353 351 348 346 349 349 347 348 352 355 359 2 7 7 6 5 10 17 12 21 24
175 179 182 188 188 187 196 187 187 195 195 200 200 210 216 249 283 281 149 155 209 259 263 297 338 329 326 350 357 347 2 351 326 328 343 349 350 351 345 344 348 348 339 327 322 356 0 9 8 5 0 3 360 359 355 356 356 352 350 349 350 353 346 354 355 348 348 350 349 352 351 350 354 357 2 4 5 12 10 10 14 19 23 18 20
179 182 182 194 191 192 194 191 188 197 203 207 209 218 217 190 208 228 254 259 235 220 224 247 269 268 268 315 333 212 254 280 307 332 343 348 346 347 349 345 348 343 340 333 359 13 10 9 8 5 2 1 359 355 352 353 354 351 350 346 350 349 348 354 347 340 354 352 354 356 354 354 354 359 3 5 7 15 18 13 16 21 23 22 20
183 186 188 193 180 194 198 192 178 190 201 205 213 225 230 249 207 199 214 231 241 242 239 239 235 234 235 237 271 323 266 308 332 331 342 346 346 342 342 342 339 340 331 312 9 16 10 8 7 6 1 0 358 354 351 352 353 351 350 350 351 350 349 354 342 349 347 353 357 1 358 357 356 360 7 6 12 13 13 13 16 21 19 24 25
190 188 189 184 186 191 200 189 188 193 198 199 209 216 230 225 245 208 177 204 225 241 247 244 234 228 226 228 230 253 280 294 308 328 340 339 342 340 325 325 330 328 315 7 18 14 12 10 9 7 6 2 358 356 351 353 355 353 352 348 351 354 354 350 348 350 345 351 346 346 350 360 359 357 5 11 15 17 15 17 11 20 19 20 27
193 187 186 186 187 190 195 196 192 197 201 205 205 208 217 231 237 242 257 203 189 210 222 229 229 244 241 237 258 280 299 311 319 328 335 335 334 328 314 288 292 331 6 18 15 14 10 8 7 6 4 359 357 355 355 357 357 355 352 354 356 357 355 353 354 351 346 349 354 350 348 347 349 348 3 10 9 18 21 18 14 17 20 18 25
188 191 185 182 189 192 192 190 192 195 192 199 198 205 216 214 227 236 243 254 272 275 291 198 187 191 260 267 268 286 302 307 311 327 323 328 329 321 302 349 10 13 18 21 15 12 9 9 5 5 4 1 358 356 357 358 357 358 358 355 356 358 356 355 352 349 350 354 356 355 351 355 352 353 0 14 14 13 18 18 16 16 17 18 20
180 172 177 195 197 182 183 189 188 193 198 204 200 206 211 205 215 227 235 250 260 268 263 260 285 197 227 256 258 268 277 284 301 310 318 298 314 312 354 4 3 11 11 13 10 6 7 9 4 5 4 2 360 360 359 358 359 358 357 355 358 1 357 356 355 352 348 355 356 355 355 355 351 355 3 10 15 16 16 16 17 7 15 18 21
180 178 175 182 189 182 182 184 190 198 202 194 182 195 197 211 220 230 236 241 247 253 266 275 267 245 200 203 188 243 234 268 281 284 266 271 271 274 6 357 0 1 8 7 5 0 4 8 6 5 4 2 2 360 360 359 359 356 352 354 359 2 357 355 357 350 351 356 358 354 353 356 355 360 4 9 10 17 15 12 18 19 19 18 21
181 181 182 178 175 177 180 193 191 176 196 203 205 200 204 208 214 225 238 246 244 254 262 257 238 279 299 325 152 269 316 291 255 246 229 230 256 357 358 1 354 359 358 2 0 356 0 3 6 5 4 4 1 1 0 359 358 357 354 351 352 359 348 353 357 353 353 357 1 0 360 359 1 3 4 11 10 12 15 14 17 22 22 22 28
183 182 176 169 184 188 193 190 174 194 199 207 210 210 213 216 211 225 230 241 240 244 249 259 262 272 280 296 294 222 244 282 332 348 343 339 338 342 353 356 358 358 355 357 356 355 358 360 3 2 4 4 1 2 1 0 358 356 351 349 352 357 1 5 0 360 0 359 2 2 1 0 0 4 6 10 10 10 11 14 18 18 20 27 28
176 169 171 170 183 196 200 195 191 200 205 209 214 215 218 220 229 227 230 234 246 249 252 255 264 269 270 249 262 277 296 305 312 332 338 336 338 340 342 352 353 355 352 353 353 354 353 359 360 2 3 4 1 0 359 1 359 354 354 354 356 358 1 3 360 360 358 354 0 0 2 358 360 3 7 12 8 9 10 15 22 24 22 23 27
182 177 161 182 194 172 189 192 203 215 211 213 217 214 225 227 232 234 234 233 243 250 251 255 263 272 254 220 197 280 277 292 304 308 323 326 327 327 338 339 344 344 347 350 350 353 352 355 358 359 2 360 0 358 359 359 355 355 357 354 357 357 357 2 355 357 349 352 358 360 1 2 3 8 8 4 10 14 14 16 26 31 30 28 28
182 177 180 179 170 197 189 199 210 209 218 213 216 222 225 225 229 234 232 236 239 245 257 256 258 261 220 185 207 205 234 271 278 287 294 305 315 325 325 323 329 337 337 344 345 342 346 347 349 354 356 354 356 355 356 0 356 355 356 356 357 357 358 2 357 349 346 352 356 360 357 2 5 11 9 3 10 16 17 14 19 30 33 34 34
185 191 193 181 185 194 203 208 209 206 207 212 219 220 225 229 230 228 233 233 241 240 247 257 266 250 240 191 198 193 231 254 259 267 280 288 300 310 309 320 325 328 328 326 330 328 328 334 337 351 351 350 354 354 352 356 352 353 357 354 355 355 356 355 355 351 351 348 354 347 350 4 8 13 8 5 4 13 19 13 15 22 36 40 40
191 199 195 189 195 195 202 208 209 213 217 214 218 212 209 216 226 233 236 237 234 229 238 248 259 261 267 173 170 209 242 253 262 269 274 280 286 294 303 307 313 316 315 323 329 324 319 326 340 345 342 344 351 351 347 353 349 349 352 352 354 353 355 354 349 346 345 341 343 355 7 9 8 13 9 10 5 9 17 15 16 17 24 36 37
197 199 195 196 196 202 204 206 217 217 218 210 212 211 205 217 224 229 228 237 235 236 238 242 245 246 247 254 250 251 256 258 258 258 262 266 272 280 289 296 292 294 303 311 318 313 309 306 312 329 335 344 350 343 351 354 351 351 350 347 348 354 353 346 339 333 332 332 344 358 5 12 15 16 8 13 14 13 19 18 19 16 23 25 30
197 200 198 201 198 206 213 209 203 215 212 214 217 215 209 211 221 226 228 231 233 239 239 238 237 236 244 256 256 251 255 259 260 260 262 262 263 267 270 278 284 280 285 292 299 293 292 298 311 326 330 332 334 342 349 350 349 352 345 348 351 350 347 339 331 328 339 344 340 353 359 8 13 15 10 7 17 13 13 10 18 19 19 26 26
192 200 197 203 206 210 213 214 205 213 220 221 226 226 225 219 222 223 225 231 236 231 236 244 243 244 243 244 246 251 250 248 255 259 257 259 262 262 263 260 262 272 274 269 266 278 262 251 270 284 299 313 311 317 335 347 353 355 353 350 1 353 356 344 329 335 338 333 333 348 354 360 11 12 12 5 11 14 11 14 12 13 17 18 24
198 202 203 205 209 216 215 211 220 216 228 224 223 227 229 229 225 227 234 227 224 229 234 238 241 246 247 249 244 247 247 249 249 249 254 256 254 253 249 241 242 252 259 265 267 273 280 279 260 261 267 262 274 301 319 330 343 348 352 354 5 359 343 326 333 344 344 333 332 339 349 5 9 12 12 8 7 7 13 14 11 19 18 23 22
203 205 207 205 211 213 213 213 218 220 221 222 220 224 226 227 231 232 231 233 231 229 229 234 240 242 244 246 248 248 242 239 243 244 245 248 247 250 243 237 233 239 249 261 266 266 263 261 253 256 260 266 258 268 287 308 318 333 344 347 3 346 329 335 329 354 317 315 344 349 3 10 7 6 9 8 8 8 13 7 7 8 17 20 22
204 205 212 207 210 217 212 213 217 228 229 228 230 232 224 226 229 231 233 232 235 233 234 233 239 241 244 245 244 243 241 241 240 240 242 245 246 243 239 234 227 231 237 242 251 257 258 262 249 243 245 252 249 253 268 272 285 308 313 352 345 316 323 326 324 353 338 352 338 355 5 6 6 9 11 9 9 8 5 9 0 6 17 18 17
203 206 213 215 217 218 214 211 212 222 225 228 227 231 230 230 230 230 230 230 233 234 233 233 235 234 237 240 243 245 245 244 245 245 243 242 240 236 232 234 234 229 232 231 238 243 248 250 256 248 243 242 244 244 250 253 255 257 244 304 279 295 309 327 337 348 338 319 326 353 4 8 6 9 13 11 6 14 0 358 1 0 11 19 16